Location: Buffign�court
(47.8126°N, 6.0176°E)
Time: 05:37:25
(UTC+00:00)

Meteor 2-20 Rocket - Visible Passes

Search period start: 18 October 2021 00:00
Search period end: 28 October 2021 00:00
Orbit: 940 x 960 km, 82.5° (Epoch: 17 October)

Date Brightness Start Highest point End Pass type
(mag) Time Alt. Az. Time Alt. Az. Time Alt. Az.
18 Oct 7.1 04:50:20 10° SE 04:54:56 23° E 04:59:32 10° NE visible
18 Oct 5.0 17:21:56 10° NNW 17:27:58 66° W 17:33:58 10° S visible
18 Oct 7.8 19:10:39 10° WNW 19:11:36 10° WNW 19:12:33 10° W visible
19 Oct 6.4 05:06:59 10° SSE 05:12:24 34° E 05:17:50 10° NNE visible
19 Oct 5.8 17:39:53 10° NNW 17:45:35 43° W 17:51:14 10° SSW visible
20 Oct 5.5 05:24:04 10° SSE 05:29:57 52° E 05:35:52 10° NNE visible
20 Oct 6.6 17:58:02 10° NNW 18:03:05 28° W 18:08:09 10° SW visible
21 Oct 7.6 04:01:05 10° ESE 04:03:47 13° ENE 04:06:28 10° NE visible
21 Oct 7.3 18:16:29 10° NW 18:20:31 19° W 18:24:31 10° WSW visible
22 Oct 7.1 04:16:46 10° SE 04:21:07 21° E 04:25:28 10° NE visible
22 Oct 7.7 18:35:49 10° WNW 18:37:49 12° WNW 18:39:49 10° W visible
23 Oct 6.4 04:33:18 10° SE 04:38:33 31° E 04:43:49 10° NNE visible
23 Oct 5.7 17:05:56 10° NNW 17:11:43 47° W 17:17:29 10° SSW visible
24 Oct 5.6 04:50:18 10° SSE 04:56:06 47° E 05:01:55 10° NNE visible
24 Oct 6.5 17:24:00 10° NNW 17:29:15 31° W 17:34:29 10° SW visible
25 Oct 7.6 03:27:57 10° E 03:29:59 12° ENE 03:32:02 10° NE visible
25 Oct 4.8 05:07:39 10° S 05:13:44 72° E 05:19:49 10° NNE visible
25 Oct 7.2 17:42:22 10° NW 17:46:41 21° W 17:51:00 10° SW visible
26 Oct 7.1 03:43:15 10° ESE 03:47:18 19° E 03:51:22 10° NE visible
26 Oct 4.4 05:25:21 10° SSW 05:31:28 77° W 05:37:35 10° N visible
26 Oct 7.5 18:01:23 10° NW 18:04:02 13° WNW 18:06:40 10° WSW visible
27 Oct 6.5 03:59:38 10° SE 04:04:44 28° E 04:09:49 10° NNE visible
